Location: Elende
(51.4317°N, 10.6316°E)
Time: 15:33:29
(UTC+00:00)

Cosmos 2142 Rocket - Pass Details

Date: 18 September 2020
Orbit: 952 x 1005 km, 82.9° (Epoch: 21 October)

Event Time Altitude Azimuth Distance (km) Brightness Sun altitude
Exits shadow 20:21:19 55° 176° (S) 1,174 4.6 -26.1°
Maximum altitude 20:22:50 82° 98° (E) 997 4.4 -26.3°
Drops below altitude 10° 20:29:06 10° 11° (NNE) 2,729 7.2 -27.0°
Sets 20:31:36 0° 11° (N) 3,672 7.9 -27.3°
